Retour au catalogue

COSMOS 1263

ActifNavigationPO
NORAD 12388·PAYLOAD·🇷🇺 Russia

Lancé Apr 9, 1981 depuis Plesetsk Cosmodrome

Loading…

Prochains Passages (prochaines 24 heures)

TLE

FraisSource: Space-Track

Époque: Sep 14, 2026, 22:01 UTC

1 12388U 81033A   26257.91780069  .00003124  00000-0  17370-3 0  9990
2 12388  82.8579 140.1763 0573480 174.5889 186.1882 14.30749632284258

Suivez COSMOS 1263 en temps réel avec AllMySat

Download on the App Store